Starlink 31029

operational
NORAD ID: 58712 Int'l Des: 2024-002 Owner: SPXS Country: US Constellation: starlink
LEOCIRCULAR

Starlink 31029について

説明を読み込み中...

リアルタイム位置

3D地球を読み込み中...

次回通過

高度履歴

Altitude vs Time

uPlot chart will show altitude changes over time

軌道要素

1 58712U 24002H 25350.97419575 -.00002014 00000-0 -55889-4 0 9991
2 58712 53.1612 253.9687 0001689 95.3973 264.7220 15.30202807109352
Epoch: Dec 16, 2025 • Age: 11 hours

現在のステータス

高度 480.5 km
速度 7.63 km/s
衛星直下点 52.54°N, 81.33°E
打ち上げ日 Jan 3, 2024
運用期間 1.9 years
タイプ internet

技術仕様

分類 Payload
質量 730.00 kg
乾燥質量 700.00 kg
総質量 730.00 kg
長さ 0.30 m
直径 4.10 m
スパン 29.00 m
形状 Box + pan
製造者 SPXS
バスタイプ Starlink V2M
フェーズステータス In Orbit
所有者/国 SPXS/US

大規模コンステレーション

Loading constellations...